Regional Weather Roundup
Issued by NWS Spokane, WA

Current Version | Previous Version | Text Only | Print | Product List | Glossary On
Versions: 1 2 3 4 5 6 7 8 9 10 11 12 13 14 15 16 17 18 19 20 21 22 23 24 25 26 27 28 29 30 31 32 33 34 35 36 37 38 39 40 41 42 43 44 45 46 47 48 49 50
255
NZUS01 KOTX 060325
RWROTX

Eastern Washington/Northern Idaho Roundup
National Weather Service, Spokane WA
700 PM PST MON DEC 05 2016

Note: "fair" indicated few or no clouds below 12,000 feet with no
significant weather and/or obstructions to visibility.

...Northeast Washington and Northern Idaho Panhandle...

CITY           SKY/WX    TMP DP  RH WIND       PRES   REMARKS
Spokane Intl   MOCLDY    28  22  78 E6        29.98F WCI  22
Spokane Downto MOCLDY    30  24  78 CALM      30.02S
Coeur d Alene  MOCLDY    26  24  92 N6        30.01S WCI  19
Deer Park      CLOUDY    27  20  75 NE5       30.01F WCI  22
Sandpoint      PTCLDY    25  18  74 N8        30.04S WCI  16
Bonners Ferry  MOCLDY    25  14  63 SE3       30.04R

...Southeast Washington and southern Idaho Panhandle...

CITY           SKY/WX    TMP DP  RH WIND       PRES   REMARKS
Walla Walla    LGT SNOW  32  30  92 NE3       30.00F FOG
Pullman/Moscow CLOUDY    29  22  75 E10       29.99F WCI  20
Lewiston       CLOUDY    31  23  72 CALM      30.01F
Lowell           N/A     29  27  92 CALM      30.09S
Grangeville    MOCLDY    25  16  68 SE8       29.96S WCI  16

...Columbia Basin...

CITY           SKY/WX    TMP DP  RH WIND       PRES   REMARKS
Ephrata        LGT SNOW  31  26  82 N7        29.99S VSB 1   WCI  24
Moses Lake     LGT SNOW  31  29  92 CALM      30.00F FOG
Pasco          CLOUDY    37  34  89 SE6       30.03F
Richland       LGT RAIN  36  35  96 NW6       30.03S
Hermiston      CLOUDY    35  32  88 E7        30.00F WCI  29
Pendleton      LGT SNOW  31  29  92 E8        29.96F FOG     WCI  23

...East Slopes Cascades...

CITY           SKY/WX    TMP DP  RH WIND       PRES   REMARKS
The Dalles     MOCLDY    35  32  88 SW5       30.01F
Yakima         CLOUDY    30  25  81 W5        29.99S WCI  25
Ellensburg     MIX PCPN  30  25  81 CALM      29.96S
Stampede Pass  CLOUDY    20  20 100 VRB3      29.84F
Wenatchee      LGT SNOW  28  27  96 CALM      30.02S FOG
Omak           CLOUDY    28  18  66 N6        30.06S WCI  22
Sunnyside      FLURRIES  32  30  92 NE6       30.00S WCI  26

...Southern British Columbia...

CITY           SKY/WX    TMP DP  RH WIND       PRES   REMARKS
Penticton      MOCLDY    28  21  74 N8        30.09S WCI  20
Cranbrook      PTCLDY    16  12  86 W8        30.00R WCI   5
Osoyoos          N/A     32  23  69 N2          N/A
Creston          N/A     25  14  63 N3          N/A

...Western Montana...

CITY           SKY/WX    TMP DP  RH WIND       PRES   REMARKS
Kalispell      CLOUDY    20  16  84 SE3       30.02S
Libby            N/A     18  14  86 CALM      30.03R
Missoula       CLOUDY    22  17  81 CALM      30.02S

...Neighboring Cities...

CITY           SKY/WX    TMP DP  RH WIND       PRES   REMARKS
Seattle        MOCLDY    36  35  96 SE8       30.01S
Portland       CLOUDY    38  34  85 S6        30.05S
Boise          CLEAR     24  16  71 SE8       30.03F WCI  15
Great Falls    CLOUDY     7   1  76 NW7       30.09R WCI  -5
Calgary        MOCLDY    -2  -9  71 N9        30.13R WCI -18



USA.gov is the U.S. government's official web portal to all federal, state and local government web resources and services.